Retour au catalogue

STARLINK-37444

ActifCommunicationsSSO
NORAD 68817·PAYLOAD·🇺🇸 United States

Lancé Apr 23, 2026 depuis Vandenberg Space Force Base

Loading…

Prochains Passages (prochaines 24 heures)

TLE

FraisSource: CelesTrak SupGP

Époque: Sep 15, 2026, 04:24 UTC

1 68817C 26089R   26258.18381944 -.00051698  00000+0 -16046-2 0  2583
2 68817  97.2855 104.0357 0002226  93.1742 325.4141 15.33467537    11

Suivez STARLINK-37444 en temps réel avec AllMySat

Download on the App Store